Lapse_Rate
4.9 7.4 9.9 8.9 6.5 6.5 6.5 6.5 6.5 6.5 6.5 7.3 7.5 6.9 6.6 7.0 6.5 6.5 8.8 7.4 9.8 9.6 8.8 7.0 6.9 6.6 6.3 6.4 6.5 5.8 5.5 5.2 5.3 6.3 6.5 6.4 6.3 6.2 5.6 5.5 5.6 5.7 5.7 5.3 5.2 5.2 5.4 6.1 5.8
9.7 9.7 9.2 7.7 6.5 6.5 6.5 6.5 6.5 6.5 6.9 7.6 7.5 7.3 6.8 6.5 8.0 5.2 5.9 5.9 9.9 9.6 8.4 6.6 6.6 6.7 6.4 6.4 6.6 5.9 5.6 5.5 5.4 5.2 4.9 5.1 5.9 6.1 5.1 5.4 5.3 4.1 4.0 4.4 4.4 4.3 3.7 3.9 4.6
9.7 9.7 7.6 6.5 6.5 6.5 6.5 6.5 6.5 6.7 7.4 7.3 7.0 7.7 7.3 7.0 7.2 7.8 7.0 6.4 9.8 8.5 6.4 7.1 6.6 6.8 6.6 6.5 6.8 6.0 5.5 5.4 5.3 5.3 4.9 4.6 4.2 4.2 4.0 3.6 3.6 3.8 3.6 3.6 3.8 4.2 3.8 4.0 3.9
9.3 8.7 8.0 6.5 6.5 6.5 6.5 6.5 6.5 6.6 7.3 7.6 7.5 6.5 6.8 5.0 8.2 9.0 6.4 7.8 8.9 6.8 6.4 6.8 7.1 7.1 7.0 6.6 6.8 6.1 5.5 5.5 5.6 5.4 5.1 4.4 3.7 3.3 3.2 2.9 3.1 3.1 3.1 3.2 3.1 3.1 3.3 3.9 4.1
9.1 8.0 6.5 6.5 6.5 6.5 6.5 6.8 6.9 6.5 6.7 7.1 7.5 6.6 7.1 5.1 4.9 5.4 6.4 6.8 8.9 6.4 6.7 6.7 6.8 7.0 7.2 6.9 6.8 6.4 5.8 5.8 5.7 5.8 5.1 4.2 3.8 3.0 2.6 2.4 2.6 2.7 2.6 2.7 2.6 2.6 2.8 2.8 3.6
7.4 7.4 6.5 6.5 6.5 6.5 6.5 7.2 7.1 6.7 7.1 7.1 7.0 7.0 7.2 5.2 4.5 6.2 6.9 6.2 7.5 6.0 6.0 6.8 6.9 7.1 6.8 6.6 6.8 6.9 6.7 6.7 6.6 5.8 4.8 3.8 3.2 2.9 2.7 2.2 1.8 1.8 2.1 2.1 2.2 2.1 1.8 1.6 1.9
6.7 6.5 6.5 6.5 6.5 6.5 6.5 7.3 6.6 6.7 6.8 6.8 7.7 6.5 7.1 4.9 7.0 7.3 7.8 6.5 5.8 5.4 5.3 5.7 6.9 7.0 6.7 6.5 6.7 6.7 6.7 6.7 6.2 5.7 3.7 3.0 1.9 1.8 1.7 1.3 1.1 0.9 0.5 0.1 0.5 1.0 1.2 0.9 0.8
7.7 6.5 6.5 6.5 6.5 6.5 6.7 7.0 7.4 7.1 6.8 7.2 8.1 6.5 6.8 7.9 6.6 8.7 7.8 5.6 5.0 4.9 4.9 4.7 6.1 6.8 6.3 6.6 6.5 6.2 5.9 3.9 2.3 2.0 0.7 0.7 0.8 0.8 0.8 0.6 0.2 -0.1 -0.3 -0.6 -0.8 -1.1 -0.7 -0.1 -0.0
8.2 6.5 6.5 6.5 6.5 6.5 6.9 6.5 7.5 7.4 7.4 7.6 7.9 7.8 7.2 6.4 5.8 8.6 6.8 5.7 4.2 4.5 4.4 4.5 5.7 6.0 5.6 5.8 5.4 4.6 2.2 0.6 0.3 0.5 0.7 1.9 2.3 1.3 -0.1 -0.3 -0.4 -0.4 -0.5 -0.7 -0.9 -1.0 -0.7 -0.4 -0.1
6.6 6.5 6.5 6.5 6.5 6.5 6.7 6.7 7.1 7.0 7.0 7.1 7.5 7.1 6.1 4.7 5.2 7.6 7.1 6.3 4.5 4.2 4.2 4.7 5.3 5.5 5.7 5.7 5.5 4.0 2.3 3.5 2.7 2.9 3.3 2.7 1.5 0.5 -0.6 -1.1 -1.3 -1.2 -1.0 -0.8 -0.7 -0.5 0.5 1.5 1.7
6.8 6.5 6.5 6.7 7.0 7.1 6.7 6.8 7.4 6.7 6.5 7.1 7.0 7.6 6.1 6.2 6.4 7.3 7.5 7.3 5.9 5.1 4.7 4.7 4.8 4.5 4.3 3.7 3.2 3.5 3.4 3.0 3.1 3.2 3.0 2.4 2.1 1.7 1.5 1.5 1.5 1.7 1.0 1.5 1.3 1.0 0.3 0.8 1.6
6.5 6.8 6.9 6.9 7.2 7.0 6.5 7.3 6.8 7.0 7.1 7.9 7.9 8.0 4.0 5.5 6.9 8.0 8.4 8.6 8.0 5.4 5.3 5.3 5.4 5.3 5.5 5.1 5.2 5.0 4.1 3.8 3.7 3.1 3.3 3.6 3.0 2.6 2.4 2.2 2.2 2.4 2.5 2.2 2.2 2.0 1.9 1.9 1.3
6.5 6.5 7.0 7.2 7.2 7.2 7.3 6.7 6.8 7.0 7.8 8.2 8.0 8.0 5.5 5.7 7.5 8.4 8.8 9.0 9.0 7.0 5.9 5.7 5.6 5.9 6.1 6.1 6.6 6.1 4.9 4.7 3.4 2.9 2.6 3.3 3.4 3.2 2.7 2.4 2.1 1.8 2.0 2.5 2.6 2.9 2.9 2.5 2.0
6.9 6.8 6.8 7.1 7.0 7.2 6.6 6.6 7.0 7.2 8.0 7.8 7.8 7.7 8.1 7.9 8.0 8.4 8.6 8.7 8.9 9.1 7.3 6.5 6.4 6.6 6.7 7.3 6.8 6.4 5.5 4.0 3.7 3.2 2.7 2.8 3.0 3.0 3.0 2.8 2.5 1.8 1.4 1.6 1.9 2.8 3.2 3.6 3.3
7.0 6.5 6.5 6.5 6.8 6.6 7.1 6.5 6.5 7.5 7.8 7.5 7.6 7.7 7.9 8.1 8.4 8.3 8.5 8.7 9.0 9.3 9.3 8.7 7.6 7.4 7.4 6.8 6.7 5.9 4.8 4.2 3.6 3.2 2.8 2.8 2.9 3.0 2.9 3.1 3.1 2.4 2.1 2.4 2.6 2.9 3.5 3.6 4.1
6.5 6.5 6.5 6.5 6.5 6.6 6.7 6.5 6.5 7.4 7.3 7.1 7.4 7.7 7.8 8.0 8.3 8.6 8.8 8.8 9.1 9.2 9.2 9.3 9.2 8.1 7.3 6.9 6.2 5.8 5.0 5.0 4.0 3.5 3.0 2.6 2.7 3.1 3.2 2.9 2.5 2.6 3.2 3.6 3.8 4.6 4.9 4.9 4.8
6.5 6.5 6.5 6.5 6.5 6.5 6.5 6.5 6.5 7.3 7.2 7.0 7.2 7.4 7.6 7.8 8.2 8.6 8.8 9.0 9.0 9.2 9.2 8.7 8.6 7.3 6.6 6.2 6.0 5.5 5.4 5.0 4.6 4.0 3.3 2.6 2.5 2.8 2.9 2.7 2.6 3.1 3.5 3.8 4.4 4.3 5.0 6.3 6.2
6.5 6.5 6.5 6.5 6.5 6.5 6.5 6.5 6.5 7.0 7.0 7.0 7.2 7.4 7.5 7.6 8.0 8.5 8.7 9.0 9.1 9.3 9.2 8.7 8.3 7.8 7.0 6.1 5.7 5.6 5.6 5.7 5.2 4.9 3.9 3.1 3.0 3.1 3.0 3.0 2.9 3.3 3.6 3.8 4.3 4.6 4.6 5.2 6.3
6.5 6.5 6.5 6.5 6.5 6.5 6.5 6.5 6.5 6.6 6.8 6.8 7.1 7.2 7.4 7.5 8.2 8.5 8.8 8.9 9.1 9.2 9.2 9.3 8.7 8.3 6.9 6.4 6.5 6.4 6.5 6.2 6.9 6.3 4.7 4.5 4.1 4.0 4.0 3.5 3.2 3.5 3.8 3.7 4.2 4.5 5.3 4.8 5.9
6.5 6.5 6.5 6.5 6.5 6.5 6.5 6.5 6.5 6.5 6.5 6.8 6.9 7.2 7.4 7.6 7.9 8.2 8.6 8.8 8.9 9.0 9.2 9.3 9.2 8.8 7.9 7.3 7.6 7.4 7.6 7.7 7.5 5.6 5.5 5.1 4.8 5.0 5.5 5.2 4.9 4.9 5.0 5.0 5.3 5.6 6.0 5.0 5.1
6.5 6.5 6.5 6.5 6.5 6.5 6.5 6.5 6.5 6.5 6.7 7.1 7.4 7.5 7.6 7.6 7.6 8.0 8.3 8.6 8.9 8.9 9.1 9.3 9.4 9.2 8.8 8.2 8.6 9.1 8.8 8.8 7.7 6.5 5.7 5.4 4.9 4.7 4.8 5.1 5.4 5.5 6.2 5.8 5.6 5.6 6.1 7.9 5.7
6.5 6.5 6.5 6.5 6.5 6.5 6.5 6.5 6.5 6.5 6.5 6.5 6.9 7.2 7.5 7.6 7.9 8.1 8.2 8.4 8.6 8.9 9.1 9.2 9.4 9.4 9.5 9.3 8.2 7.5 7.0 7.5 8.4 7.5 6.7 5.4 5.2 4.8 4.6 4.7 5.1 5.0 5.4 6.0 5.6 5.6 5.5 7.0 7.6
6.5 6.5 6.5 6.5 6.5 6.5 6.5 6.5 6.5 6.5 6.5 6.5 6.5 7.0 7.4 7.7 7.9 8.0 8.2 8.5 8.8 8.9 9.0 9.3 9.3 9.2 9.3 8.6 7.5 7.6 8.0 9.0 8.5 8.1 6.3 5.8 5.4 5.1 4.8 5.0 4.9 5.0 5.3 5.2 5.4 5.7 5.6 5.6 6.4
6.5 6.5 6.5 6.5 6.5 6.5 6.5 6.5 6.5 6.5 6.5 6.5 6.6 7.1 7.3 7.6 7.9 8.1 8.5 8.7 8.7 9.0 9.0 9.1 9.1 9.2 9.2 7.8 7.5 7.8 8.7 8.3 7.6 6.9 6.3 6.0 5.5 5.1 5.0 5.2 5.4 5.2 5.3 5.4 5.4 5.4 5.7 5.8 5.8
6.5 6.5 6.5 6.5 6.5 6.5 6.5 6.5 6.5 6.5 6.5 6.5 6.5 6.9 6.9 7.3 7.8 8.0 8.1 8.3 8.5 8.7 8.9 9.1 9.2 9.1 9.0 8.6 8.4 9.2 9.1 7.6 7.0 6.9 6.2 5.5 5.3 5.3 5.2 5.3 5.4 5.4 5.2 5.1 5.2 5.4 5.5 5.6 6.0
6.5 6.5 6.5 6.5 6.5 6.5 6.5 6.5 6.5 6.5 6.6 6.7 6.7 6.6 7.5 7.0 7.8 8.0 8.2 8.4 8.5 7.9 8.7 9.0 9.0 8.7 8.2 8.5 8.6 9.0 8.0 7.2 6.6 6.1 5.8 5.8 5.7 5.9 5.4 4.8 4.8 4.7 4.6 4.6 4.7 5.3 5.7 5.8 6.3
6.5 6.5 6.5 6.5 6.5 6.5 6.5 6.5 6.5 6.5 6.5 6.6 6.7 7.0 7.2 7.5 7.8 7.9 8.2 8.5 8.6 8.7 7.5 8.1 8.8 8.1 7.6 7.7 7.7 7.1 6.4 5.8 5.6 5.7 5.9 5.7 5.6 5.1 5.1 5.3 5.0 4.6 4.4 4.6 4.8 5.4 5.8 5.9 6.4
6.5 6.5 6.5 6.5 6.5 6.5 6.5 6.5 6.5 6.5 6.5 6.5 6.5 6.5 6.8 7.5 7.8 8.0 8.2 8.4 8.7 8.9 8.9 7.7 8.1 7.0 5.5 6.3 6.3 6.7 5.8 5.7 5.8 5.9 6.2 6.5 6.1 5.5 5.6 4.3 4.6 4.9 5.0 5.2 5.5 5.9 6.0 6.0 6.3
6.5 6.5 6.5 6.5 6.5 6.5 6.5 6.5 6.5 6.5 6.5 6.5 6.5 6.5 6.2 6.4 6.8 8.0 8.2 8.5 8.3 8.1 8.4 7.2 7.5 6.7 6.2 4.5 4.5 4.4 5.2 5.7 6.3 6.3 6.2 6.2 5.7 5.6 5.2 5.2 5.3 5.3 5.6 6.0 6.5 6.9 7.0 6.5 6.9
6.5 6.5 6.5 6.5 6.5 6.5 6.5 6.5 6.5 6.5 6.5 6.6 6.7 7.0 7.5 7.7 7.9 8.1 8.3 8.5 8.6 8.8 8.9 8.9 8.8 6.7 5.0 4.2 4.2 4.6 5.0 5.4 5.7 6.0 5.6 5.9 5.5 5.5 5.6 5.8 6.2 6.2 6.2 6.4 6.4 6.5 6.7 6.9 7.0
Wind_Speed
9 10 4 4 6 7 15 18 15 9 5 5 5 6 8 12 7 4 9 4 16 16 17 12 15 13 13 13 16 18 19 18 18 18 16 18 18 19 21 22 21 21 21 21 21 19 19 15 15
8 8 5 3 8 13 13 18 19 8 3 3 2 6 5 9 7 9 9 9 13 15 12 9 18 15 13 14 16 19 20 17 17 17 18 19 18 17 19 20 20 21 21 20 20 18 17 17 16
9 9 4 5 11 17 14 5 6 3 2 3 4 2 6 2 5 10 6 15 14 12 10 16 19 16 12 13 15 19 19 17 17 18 18 18 18 19 18 18 18 19 18 18 18 17 17 15 16
6 5 5 9 18 16 17 11 3 2 3 6 6 5 4 4 4 5 14 14 13 10 6 16 17 17 14 14 14 16 18 17 16 18 18 18 18 18 18 18 17 17 17 17 17 17 17 16 15
5 6 10 15 21 23 19 12 9 11 7 6 9 5 2 7 6 12 16 13 14 9 12 16 17 17 16 14 15 16 17 16 17 17 17 17 17 18 18 17 17 17 16 16 16 16 15 16 16
6 5 10 15 21 21 19 16 16 16 15 7 7 9 2 10 11 13 14 13 12 9 7 14 18 18 18 17 15 15 17 16 16 18 18 17 17 17 16 17 17 15 15 16 15 15 15 15 14
14 10 16 19 20 20 16 9 13 15 16 14 4 8 4 10 11 14 14 12 9 8 8 8 16 19 18 18 17 17 18 18 18 21 20 18 18 17 17 17 16 14 14 16 15 14 15 15 15
9 11 19 18 19 22 11 2 5 10 16 6 7 5 5 13 14 14 13 11 8 6 8 10 12 18 17 17 20 20 19 20 20 21 20 19 18 17 16 16 16 16 16 15 14 14 14 15 16
10 8 14 25 20 18 1 5 6 3 8 2 7 3 5 17 16 15 12 10 7 6 7 9 12 17 19 19 20 19 17 17 16 15 12 10 12 14 15 15 15 15 14 14 13 12 10 7 13
13 12 21 20 16 14 13 8 12 5 9 11 9 6 9 15 17 17 15 13 10 9 7 7 11 14 17 17 16 15 12 8 9 10 9 10 11 12 14 14 13 12 12 12 12 12 11 10 9
11 21 19 17 7 9 14 15 10 11 16 15 14 14 14 16 17 18 18 18 16 11 7 8 9 16 16 14 14 10 9 8 8 8 8 9 9 8 7 6 6 6 6 7 9 10 12 11 9
16 20 21 21 17 10 15 16 18 13 23 18 6 5 20 19 18 18 17 18 19 15 12 11 11 11 13 13 10 12 9 8 8 8 7 7 7 7 6 6 6 6 7 8 8 8 9 9 10
21 21 17 16 13 17 16 20 19 22 22 15 7 5 17 17 18 17 17 17 19 18 13 13 10 8 11 10 11 10 10 8 9 8 7 6 7 6 7 6 7 7 7 7 7 7 7 8 9
4 14 17 15 18 16 17 18 17 22 15 18 15 11 13 17 18 16 18 19 20 20 18 14 12 12 13 10 12 10 10 11 9 8 7 7 7 7 6 6 7 8 8 7 8 7 6 6 6
11 14 16 19 20 17 10 16 19 22 19 19 13 12 14 15 16 19 18 18 19 17 18 17 14 16 13 12 12 12 12 11 9 9 8 8 7 7 7 6 7 7 7 6 6 6 5 5 5
8 14 14 6 11 5 8 14 10 10 5 8 11 12 13 14 15 16 16 16 17 17 19 17 14 15 14 11 11 12 13 11 11 10 9 9 8 8 7 7 7 6 6 6 6 4 3 3 3
15 14 17 15 12 5 13 11 4 2 3 8 8 9 11 12 14 14 16 16 16 18 19 17 16 16 13 13 12 12 13 11 11 10 9 9 8 8 8 8 7 6 6 6 4 4 3 3 4
13 18 17 13 5 8 12 16 15 16 11 14 13 12 11 10 12 13 16 16 17 17 18 18 15 16 15 10 11 10 9 10 11 10 10 10 8 8 8 8 7 6 5 4 4 5 5 3 3
20 19 17 14 9 8 16 19 18 17 15 17 15 12 11 8 10 12 13 15 16 16 17 19 17 16 12 9 9 8 8 7 6 10 11 9 8 7 7 7 7 7 5 5 4 4 4 4 2
16 17 17 14 7 6 15 20 18 17 16 10 6 9 9 9 5 10 13 14 16 17 18 18 18 16 13 9 8 8 8 8 8 11 10 9 8 6 6 6 6 6 5 5 5 3 3 4 4
14 15 12 11 6 11 14 17 20 5 8 8 9 7 7 6 6 8 11 13 14 15 17 17 17 16 14 14 9 8 8 8 7 8 6 9 9 7 7 6 6 6 5 4 5 4 5 3 4
12 5 2 6 4 7 1 7 11 10 9 9 8 7 7 7 4 6 8 10 11 11 12 14 14 14 13 14 12 15 9 9 8 8 7 9 9 8 7 6 5 6 5 4 4 6 4 3 3
2 3 2 6 10 12 14 7 3 8 9 7 6 8 7 6 5 5 6 8 9 9 10 11 13 13 13 12 11 10 10 7 8 7 11 8 9 8 7 6 5 5 4 5 5 4 5 4 3
2 2 3 3 4 6 17 14 2 3 2 2 6 8 7 5 5 6 6 8 9 10 10 11 13 13 13 12 12 12 12 12 9 9 8 7 6 7 7 5 4 4 3 3 3 4 3 4 3
2 4 4 5 6 5 5 6 3 4 3 3 4 5 5 3 4 5 7 8 9 11 12 11 13 13 13 12 11 9 10 12 13 11 7 8 6 5 6 6 5 4 3 3 2 2 2 2 3
9 7 6 6 5 3 5 5 2 3 1 1 2 3 2 3 3 5 6 7 9 8 10 12 13 12 12 12 12 9 10 7 8 8 7 6 6 5 9 7 5 4 3 2 1 2 2 3 2
5 6 2 5 9 7 9 2 4 6 4 2 2 2 4 4 3 3 5 5 8 10 6 8 12 10 11 11 10 11 10 10 9 10 8 6 7 8 9 7 5 5 4 3 2 1 2 2 3
3 3 3 3 5 10 8 8 3 8 6 3 4 4 4 5 3 4 4 5 6 9 10 5 4 10 7 9 7 8 9 9 9 9 9 8 7 8 9 8 8 6 5 5 4 3 3 3 3
4 4 4 3 6 8 11 4 6 9 10 8 4 3 2 3 3 2 4 6 7 7 9 10 9 8 8 9 8 9 8 9 8 7 8 8 10 10 8 8 8 7 6 7 5 4 4 5 5
2 4 4 5 7 3 6 10 6 7 8 5 3 6 4 3 2 1 3 5 6 8 9 11 11 12 12 10 10 9 9 8 8 8 8 10 9 10 9 9 7 7 7 8 6 5 5 5 5
Wind_Direction
201 202 190 199 229 233 249 241 262 233 300 265 330 209 261 243 272 237 132 121 135 149 149 152 140 122 118 115 119 111 102 97 96 92 86 86 83 76 70 71 71 73 69 73 68 65 65 82 82
204 180 193 238 247 237 242 239 248 245 270 68 312 274 263 249 77 118 147 172 157 144 150 153 139 124 123 126 123 116 107 105 101 99 97 92 87 84 81 79 75 73 71 69 71 65 62 57 70
227 216 227 219 236 243 257 18 319 89 118 179 219 254 306 51 76 135 102 160 156 138 156 149 141 138 135 129 124 115 109 109 108 103 100 95 91 86 79 78 77 78 77 71 70 68 66 65 65
186 202 255 240 241 246 255 271 151 195 199 219 221 241 119 51 128 127 140 149 151 145 160 149 149 143 137 130 124 116 117 114 111 105 99 96 93 92 86 81 78 75 76 74 71 67 63 64 66
227 244 246 235 250 253 255 240 259 242 250 196 195 221 182 146 119 135 145 153 149 144 146 143 144 143 136 130 124 119 117 115 113 106 98 95 93 88 87 82 80 78 74 73 70 69 65 63 62
205 251 241 245 251 251 251 253 243 237 254 197 207 252 200 123 155 153 149 148 148 132 137 150 146 140 133 128 121 115 113 108 104 99 95 92 89 86 85 82 76 76 78 73 70 67 67 66 66
233 223 249 261 267 275 279 232 243 252 250 226 231 224 107 160 158 153 151 140 133 128 116 120 142 134 129 120 116 108 105 104 96 92 87 83 81 80 75 74 78 76 73 71 66 63 65 61 61
227 250 259 251 256 265 295 340 241 266 258 6 158 242 215 155 152 153 142 142 130 119 113 104 123 127 117 114 111 103 99 98 91 98 97 95 86 78 75 72 66 66 62 62 61 58 57 62 63
229 235 242 246 249 260 194 240 163 348 264 238 181 312 83 131 152 154 155 150 136 129 118 119 126 121 117 112 108 102 100 98 105 101 106 104 97 93 86 80 77 72 71 68 61 59 53 64 64
211 226 239 249 268 282 274 219 266 214 220 224 226 131 140 153 166 170 174 170 165 149 137 130 130 116 121 125 119 111 122 124 125 127 119 98 91 95 93 89 85 78 73 62 54 46 43 43 44
223 243 250 265 264 281 277 271 254 251 256 248 243 200 175 176 182 186 183 180 172 158 149 149 129 124 122 119 119 125 128 120 115 112 111 115 117 115 99 102 82 80 71 64 59 49 45 44 41
241 240 251 269 277 279 265 273 263 246 255 280 308 268 171 189 193 194 189 184 175 167 160 151 147 138 135 133 139 140 139 134 126 114 116 115 106 99 92 86 80 63 53 65 59 68 68 68 59
234 247 263 256 266 266 268 262 270 263 266 257 246 208 184 194 196 195 193 187 179 176 167 162 152 149 143 150 144 147 135 137 121 116 106 110 106 98 94 82 74 70 57 47 59 58 71 66 63
266 255 261 264 254 256 249 258 250 254 259 250 238 207 210 206 199 192 193 190 186 180 173 166 164 156 154 152 149 143 139 128 125 118 109 99 101 99 91 85 75 64 57 57 51 41 58 69 76
264 259 262 251 250 244 258 261 244 251 264 259 244 215 228 216 204 202 193 192 185 183 178 175 168 164 164 156 150 143 139 139 130 124 118 110 106 102 100 86 77 67 63 66 67 63 66 71 71
242 238 256 242 221 204 190 262 263 216 268 232 236 231 228 222 216 205 192 191 185 178 178 175 173 169 162 155 146 143 147 143 134 130 122 114 108 107 99 92 77 70 65 65 55 46 85 77 77
230 256 242 242 177 184 208 272 201 162 229 238 230 228 214 213 206 205 190 186 182 182 176 174 174 170 160 151 148 144 146 139 137 133 126 120 113 107 103 97 94 89 82 72 72 60 31 77 94
237 244 242 256 166 214 230 247 263 269 235 256 263 257 211 210 208 197 189 182 182 181 175 176 172 169 158 147 143 142 145 139 142 137 128 125 117 112 108 103 91 80 86 73 65 81 65 51 75
271 272 267 267 253 243 254 261 262 260 255 259 262 257 260 215 181 171 185 180 180 180 176 177 173 166 159 157 155 155 153 148 144 134 135 127 126 119 113 106 100 86 70 65 50 43 56 62 8
241 249 253 262 271 251 267 272 273 263 269 299 330 19 353 328 267 163 174 180 183 181 181 177 177 168 167 161 159 158 149 149 140 134 135 128 121 112 110 106 100 103 107 94 77 62 107 81 21
235 241 251 268 312 257 269 278 263 97 98 76 54 47 16 338 274 166 176 180 181 182 182 180 176 170 168 162 151 145 139 138 141 147 135 135 125 111 103 94 91 87 82 86 80 67 26 96 82
245 23 301 282 275 275 256 281 291 180 142 65 34 34 33 27 44 132 171 177 180 183 176 172 171 170 170 161 157 158 158 158 157 152 139 137 131 120 110 100 87 74 69 69 63 59 51 4 70
29 34 340 284 271 284 256 255 215 153 141 35 28 37 44 43 63 111 152 167 172 171 170 171 165 172 170 161 164 161 159 152 144 142 141 138 131 125 120 114 105 86 66 64 58 55 49 45 33
84 294 267 285 260 253 242 203 159 106 61 63 48 51 43 44 84 109 132 151 165 164 167 170 168 175 169 172 167 173 160 147 146 148 147 144 138 135 131 126 116 101 91 83 64 51 36 29 27
197 209 225 206 194 248 121 224 4 69 86 67 46 30 17 32 92 120 139 153 160 166 174 173 177 175 173 177 172 162 152 152 152 150 145 143 142 147 150 152 144 139 114 84 44 19 15 2 346
203 257 270 277 294 320 163 232 150 113 99 8 279 253 144 112 98 122 143 158 162 166 176 181 179 176 174 170 164 154 147 150 145 146 145 148 152 151 150 157 159 150 146 131 46 341 322 323 306
160 216 7 308 264 269 251 112 118 132 120 96 54 68 67 78 102 127 142 156 162 173 174 189 180 165 173 164 157 152 155 148 146 141 142 146 145 149 156 161 164 167 166 178 174 240 251 265 284
299 14 249 195 262 255 250 266 153 170 153 131 77 59 56 63 89 139 161 161 157 164 177 178 185 161 151 145 136 137 138 140 140 139 139 141 140 152 159 166 175 178 189 196 200 209 229 246 245
209 229 206 292 268 264 272 264 345 148 137 119 48 45 19 16 24 85 145 158 167 171 171 170 154 153 141 127 134 140 147 148 136 139 143 152 161 169 167 176 179 183 193 201 212 224 226 242 253
332 293 322 257 258 312 288 272 28 80 107 109 27 327 349 352 22 140 135 154 165 167 170 170 171 168 159 150 141 134 131 130 143 150 151 156 168 169 173 178 185 189 199 206 211 222 228 245 251